Location: Unspecified
(42.3650°N, 71.1030°W)
Time: 17:08:01
(UTC+00:00)

Transit 2A - Pass Details

Date: 25 June 2024
Orbit: 591 x 960 km, 66.7° (Epoch: 16 July)

Event Time Altitude Azimuth Distance (km) Brightness Sun altitude
Rises 03:52:07 0° 330° (NNW) 3,545 10.7 -23.0°
Reaches altitude 10° 03:54:37 10° 332° (NNW) 2,635 9.8 -23.1°
Maximum altitude 04:00:51 78° 58° (ENE) 980 6.4 -23.4°
Enters shadow 04:02:57 45° 136° (SE) 1,287 6.7 -23.5°
